| time (UTC) | temp F | wind direction | speed MPH | gust MPH | rain 1hr in | rain 24hr in | rain mn in | humidity % | barometer mb |
| 20260504185010 | 50 | 203 | 0.0 | 1.0 | 0.32 | 0.74 | 0.72 | 92 | 1012.2 |
| 20260504184519 | 50 | 138 | 0.0 | 2.0 | 0.29 | 0.70 | 0.67 | 92 | 1012.2 |
| 20260504184009 | 50 | 136 | 0.0 | 2.0 | 0.25 | 0.65 | 0.62 | 92 | 1012.1 |
| 20260504183507 | 50 | 283 | 1.0 | 3.0 | 0.20 | 0.60 | 0.58 | 92 | 1012.0 |
| 20260504183019 | 50 | 269 | 1.0 | 3.0 | 0.18 | 0.57 | 0.55 | 92 | 1012.0 |
| 20260504182506 | 50 | 274 | 1.0 | 5.0 | 0.16 | 0.55 | 0.52 | 92 | 1012.0 |
| 20260504182009 | 50 | 125 | 1.0 | 5.0 | 0.14 | 0.51 | 0.49 | 91 | 1012.0 |
| 20260504181530 | 50 | 271 | 2.0 | 5.0 | 0.12 | 0.49 | 0.47 | 91 | 1011.8 |
| 20260504181011 | 50 | 240 | 2.0 | 5.0 | 0.11 | 0.48 | 0.45 | 90 | 1011.8 |
| 20260504180506 | 50 | 242 | 1.0 | 5.0 | 0.10 | 0.46 | 0.44 | 90 | 1011.8 |
| 20260504180024 | 50 | 268 | 2.0 | 6.0 | 0.08 | 0.44 | 0.42 | 90 | 1011.7 |
| 20260504175509 | 51 | 257 | 3.0 | 6.0 | 0.07 | 0.43 | 0.40 | 90 | 1011.7 |
| 20260504175010 | 51 | 235 | 3.0 | 7.0 | 0.06 | 0.42 | 0.40 | 89 | 1011.6 |
| 20260504174526 | 52 | 285 | 3.0 | 7.0 | 0.04 | 0.40 | 0.38 | 89 | 1011.6 |
| 20260504174008 | 54 | 210 | 3.0 | 7.0 | 0.03 | 0.40 | 0.37 | 89 | 1011.5 |
| 20260504173507 | 54 | 272 | 3.0 | 6.0 | 0.03 | 0.40 | 0.37 | 90 | 1011.6 |
| 20260504173015 | 54 | 269 | 0.0 | 4.0 | 0.03 | 0.39 | 0.37 | 90 | 1011.6 |
| 20260504172507 | 54 | 247 | 2.0 | 5.0 | 0.02 | 0.38 | 0.36 | 90 | 1011.6 |
| 20260504172008 | 55 | 358 | 0.0 | 6.0 | 0.01 | 0.37 | 0.35 | 89 | 1011.7 |
| 20260504171519 | 55 | 273 | 3.0 | 6.0 | 0.00 | 0.37 | 0.34 | 88 | 1011.7 |
| 20260504171010 | 55 | 274 | 2.0 | 5.0 | 0.00 | 0.36 | 0.33 | 87 | 1011.6 |
| 20260504170509 | 55 | 285 | 2.0 | 4.0 | 0.00 | 0.36 | 0.33 | 86 | 1011.6 |
| 20260504151009 | 56 | 269 | 1.0 | 3.0 | 0.00 | 0.36 | 0.33 | 76 | 1011.6 |
| 20260504150508 | 56 | 281 | 1.0 | 3.0 | 0.00 | 0.36 | 0.33 | 74 | 1011.5 |
| 20260504141006 | 59 | 288 | 2.0 | 5.0 | 0.00 | 0.36 | 0.33 | 78 | 1011.8 |
| 20260504140507 | 59 | 293 | 1.0 | 3.0 | 0.00 | 0.36 | 0.33 | 75 | 1011.9 |
| 20260504130506 | 61 | 150 | 2.0 | 5.0 | 0.00 | 0.36 | 0.33 | 72 | 1012.3 |
| 20260504110510 | 60 | 127 | 4.0 | 7.0 | 0.00 | 0.36 | 0.33 | 71 | 1013.0 |
| 20260504100507 | 58 | 125 | 1.0 | 5.0 | 0.00 | 0.36 | 0.33 | 80 | 1013.4 |
| 20260504081535 | 56 | 303 | 1.0 | 5.0 | 0.00 | 0.36 | 0.33 | 82 | 1013.1 |
| 20260504081005 | 56 | 355 | 1.0 | 6.0 | 0.00 | 0.36 | 0.33 | 81 | 1013.1 |
| 20260504080507 | 56 | 155 | 1.0 | 7.0 | 0.00 | 0.36 | 0.33 | 80 | 1013.1 |
| 20260504050505 | 50 | 115 | 1.0 | 4.0 | 0.00 | 0.37 | 0.33 | 87 | 1012.2 |
| 20260504050009 | 50 | 134 | 1.0 | 5.0 | 0.00 | 0.37 | 0.33 | 87 | 1012.1 |
| 20260504045505 | 50 | 293 | 0.0 | 7.0 | 0.00 | 0.37 | 0.33 | 87 | 1012.2 |
| 20260504045002 | 50 | 246 | 1.0 | 7.0 | 0.00 | 0.37 | 0.33 | 86 | 1012.1 |
| 20260504044515 | 50 | 173 | 2.0 | 7.0 | 0.00 | 0.37 | 0.33 | 86 | 1012.1 |
| 20260504044003 | 50 | 13 | 2.0 | 5.0 | 0.00 | 0.37 | 0.33 | 86 | 1012.0 |
| 20260504043507 | 50 | 73 | 2.0 | 5.0 | 0.00 | 0.37 | 0.33 | 86 | 1012.2 |
| 20260504043018 | 50 | 255 | 2.0 | 8.0 | 0.00 | 0.37 | 0.33 | 86 | 1012.1 |
| 20260504042509 | 50 | 148 | 2.0 | 8.0 | 0.00 | 0.37 | 0.33 | 86 | 1012.1 |
| 20260504042009 | 50 | 171 | 1.0 | 6.0 | 0.00 | 0.37 | 0.33 | 86 | 1012.2 |
| 20260504041524 | 50 | 109 | 2.0 | 6.0 | 0.00 | 0.37 | 0.33 | 86 | 1012.2 |
| 20260504041006 | 50 | 269 | 1.0 | 4.0 | 0.00 | 0.37 | 0.33 | 86 | 1012.2 |
| 20260504040506 | 50 | 151 | 1.0 | 8.0 | 0.00 | 0.37 | 0.33 | 85 | 1012.3 |
| 20260504040027 | 50 | 84 | 2.0 | 8.0 | 0.00 | 0.37 | 0.33 | 85 | 1012.4 |
| 20260504035503 | 50 | 104 | 2.0 | 7.0 | 0.00 | 0.37 | 0.33 | 85 | 1012.4 |
| 20260504035005 | 50 | 126 | 1.0 | 7.0 | 0.00 | 0.37 | 0.33 | 85 | 1012.4 |
| 20260504034519 | 50 | 167 | 1.0 | 4.0 | 0.00 | 0.37 | 0.33 | 85 | 1012.4 |
| 20260504034003 | 50 | 115 | 1.0 | 5.0 | 0.00 | 0.37 | 0.33 | 85 | 1012.5 |
| 20260504033506 | 50 | 295 | 1.0 | 5.0 | 0.00 | 0.37 | 0.33 | 85 | 1012.4 |
| 20260504033028 | 50 | 152 | 2.0 | 6.0 | 0.00 | 0.37 | 0.33 | 85 | 1012.4 |
| 20260504032505 | 50 | 151 | 1.0 | 7.0 | 0.00 | 0.37 | 0.33 | 85 | 1012.5 |
| 20260504032009 | 50 | 158 | 1.0 | 7.0 | 0.00 | 0.37 | 0.33 | 85 | 1012.5 |
| 20260504031523 | 50 | 129 | 1.0 | 6.0 | 0.00 | 0.37 | 0.33 | 85 | 1012.5 |
| 20260504031007 | 50 | 155 | 1.0 | 6.0 | 0.00 | 0.37 | 0.33 | 85 | 1012.5 |
| 20260504030507 | 50 | 245 | 1.0 | 6.0 | 0.00 | 0.37 | 0.33 | 86 | 1012.5 |
| 20260504030025 | 50 | 124 | 2.0 | 6.0 | 0.00 | 0.37 | 0.33 | 86 | 1012.5 |
| 20260504025507 | 50 | 86 | 2.0 | 6.0 | 0.00 | 0.37 | 0.33 | 86 | 1012.5 |
| 20260504025007 | 50 | 120 | 2.0 | 7.0 | 0.00 | 0.37 | 0.33 | 86 | 1012.5 |
| 20260504024540 | 50 | 118 | 2.0 | 7.0 | 0.00 | 0.37 | 0.33 | 86 | 1012.5 |
| 20260504024009 | 50 | 127 | 2.0 | 6.0 | 0.00 | 0.37 | 0.33 | 86 | 1012.5 |
| 20260504023504 | 49 | 144 | 1.0 | 6.0 | 0.00 | 0.37 | 0.33 | 86 | 1012.5 |
| 20260504023010 | 49 | 179 | 1.0 | 6.0 | 0.00 | 0.37 | 0.33 | 86 | 1012.4 |
| 20260504022504 | 49 | 119 | 1.0 | 8.0 | 0.00 | 0.37 | 0.33 | 86 | 1012.5 |
| 20260504022012 | 49 | 150 | 2.0 | 8.0 | 0.00 | 0.37 | 0.33 | 86 | 1012.6 |
| 20260504021518 | 49 | 150 | 1.0 | 5.0 | 0.00 | 0.37 | 0.33 | 86 | 1012.7 |
| 20260504021008 | 49 | 193 | 1.0 | 5.0 | 0.00 | 0.37 | 0.33 | 87 | 1012.5 |
| 20260504020506 | 49 | 101 | 1.0 | 4.0 | 0.00 | 0.37 | 0.33 | 87 | 1012.7 |
| 20260504020022 | 48 | 120 | 1.0 | 3.0 | 0.00 | 0.37 | 0.33 | 88 | 1012.7 |
| 20260504015510 | 48 | 91 | 1.0 | 3.0 | 0.00 | 0.37 | 0.33 | 88 | 1012.8 |
| 20260504015009 | 48 | 300 | 0.0 | 2.0 | 0.01 | 0.37 | 0.33 | 88 | 1012.8 |
| 20260504014526 | 48 | 127 | 0.0 | 4.0 | 0.01 | 0.37 | 0.33 | 88 | 1012.8 |
| 20260504014014 | 48 | 191 | 1.0 | 6.0 | 0.02 | 0.37 | 0.33 | 88 | 1012.9 |
| 20260504013510 | 48 | 153 | 1.0 | 6.0 | 0.03 | 0.37 | 0.33 | 89 | 1012.9 |
| 20260504013025 | 47 | 347 | 0.0 | 2.0 | 0.03 | 0.37 | 0.33 | 89 | 1012.9 |
| 20260504012506 | 47 | 91 | 0.0 | 2.0 | 0.05 | 0.37 | 0.33 | 89 | 1012.9 |
| 20260504012006 | 47 | 261 | 0.0 | 4.0 | 0.06 | 0.37 | 0.33 | 89 | 1013.0 |
| 20260504011526 | 47 | 147 | 0.0 | 4.0 | 0.07 | 0.37 | 0.33 | 89 | 1013.1 |
| 20260504011006 | 47 | 27 | 0.0 | 3.0 | 0.07 | 0.37 | 0.33 | 90 | 1013.1 |
| 20260504010510 | 47 | 212 | 1.0 | 3.0 | 0.09 | 0.37 | 0.33 | 90 | 1013.1 |
| 20260504010018 | 47 | 161 | 0.0 | 2.0 | 0.10 | 0.37 | 0.33 | 91 | 1013.1 |
| 20260504005507 | 47 | 134 | 0.0 | 2.0 | 0.12 | 0.37 | 0.33 | 92 | 1013.2 |
| 20260504005007 | 47 | 118 | 0.0 | 2.0 | 0.13 | 0.36 | 0.32 | 92 | 1013.3 |
| 20260504004537 | 47 | 126 | 0.0 | 3.0 | 0.14 | 0.36 | 0.32 | 92 | 1013.4 |
| 20260504004009 | 47 | 142 | 1.0 | 3.0 | 0.15 | 0.35 | 0.31 | 92 | 1013.5 |
| 20260504003510 | 47 | 134 | 0.0 | 2.0 | 0.17 | 0.34 | 0.30 | 92 | 1013.5 |
| 20260504003025 | 47 | 293 | 0.0 | 2.0 | 0.17 | 0.33 | 0.29 | 92 | 1013.6 |
| 20260504002509 | 47 | 309 | 0.0 | 1.0 | 0.16 | 0.32 | 0.28 | 92 | 1013.6 |
| 20260504002009 | 47 | 109 | 0.0 | 1.0 | 0.15 | 0.31 | 0.27 | 92 | 1013.7 |
| 20260504001525 | 47 | 108 | 0.0 | 0.0 | 0.15 | 0.30 | 0.26 | 92 | 1013.7 |
| 20260504001005 | 47 | 108 | 0.0 | 2.0 | 0.14 | 0.29 | 0.25 | 92 | 1013.8 |
| 20260504000502 | 47 | 109 | 0.0 | 2.0 | 0.13 | 0.27 | 0.23 | 92 | 1013.9 |
| 20260504000003 | 47 | 285 | 0.0 | 1.0 | 0.13 | 0.26 | 0.22 | 92 | 1013.9 |
| 20260503235504 | 47 | 354 | 0.0 | 3.0 | 0.11 | 0.24 | 0.20 | 91 | 1014.0 |
| 20260503235003 | 47 | 308 | 1.0 | 3.0 | 0.11 | 0.22 | 0.18 | 91 | 1014.0 |
| 20260503234503 | 47 | 344 | 0.0 | 2.0 | 0.11 | 0.21 | 0.17 | 90 | 1014.0 |
| 20260503234003 | 47 | 321 | 0.0 | 1.0 | 0.09 | 0.19 | 0.15 | 90 | 1014.0 |
| 20260503233502 | 47 | 74 | 0.0 | 1.0 | 0.07 | 0.17 | 0.13 | 90 | 1014.0 |
| 20260503233004 | 48 | 74 | 0.0 | 1.0 | 0.07 | 0.16 | 0.12 | 89 | 1014.1 |
| 20260503232502 | 48 | 74 | 0.0 | 1.0 | 0.08 | 0.15 | 0.11 | 89 | 1014.1 |
| 20260503232002 | 48 | 127 | 0.0 | 1.0 | 0.09 | 0.15 | 0.11 | 88 | 1014.2 |
| 20260503231508 | 48 | 127 | 0.0 | 1.0 | 0.08 | 0.14 | 0.11 | 88 | 1014.2 |
| 20260503231005 | 48 | 128 | 0.0 | 1.0 | 0.08 | 0.14 | 0.10 | 87 | 1014.3 |
| 20260503230504 | 48 | 127 | 0.0 | 0.0 | 0.09 | 0.14 | 0.10 | 86 | 1014.4 |
| 20260503230008 | 49 | 127 | 0.0 | 1.0 | 0.09 | 0.13 | 0.09 | 85 | 1014.3 |
| 20260503225503 | 49 | 127 | 0.0 | 1.0 | 0.08 | 0.12 | 0.08 | 84 | 1014.4 |
| 20260503225003 | 49 | 128 | 0.0 | 1.0 | 0.07 | 0.11 | 0.07 | 84 | 1014.4 |
| 20260503224507 | 49 | 141 | 0.0 | 1.0 | 0.07 | 0.10 | 0.06 | 83 | 1014.4 |
| 20260503224005 | 49 | 136 | 0.0 | 1.0 | 0.07 | 0.10 | 0.06 | 83 | 1014.5 |
| 20260503223503 | 49 | 142 | 0.0 | 1.0 | 0.07 | 0.09 | 0.05 | 83 | 1014.6 |
| 20260503223003 | 49 | 139 | 0.0 | 2.0 | 0.06 | 0.08 | 0.04 | 83 | 1014.6 |
| 20260503222503 | 49 | 161 | 0.0 | 2.0 | 0.05 | 0.07 | 0.03 | 82 | 1014.6 |
| 20260503222002 | 49 | 147 | 0.0 | 2.0 | 0.04 | 0.06 | 0.02 | 82 | 1014.7 |
| 20260503221504 | 49 | 97 | 0.0 | 2.0 | 0.04 | 0.06 | 0.02 | 82 | 1014.7 |
| 20260503221003 | 50 | 141 | 0.0 | 2.0 | 0.03 | 0.05 | 0.01 | 81 | 1014.8 |
| 20260503220503 | 50 | 165 | 0.0 | 2.0 | 0.03 | 0.04 | 0.00 | 80 | 1014.9 |
| 20260503220008 | 50 | 179 | 0.0 | 2.0 | 0.02 | 0.03 | 0.00 | 78 | 1014.9 |
| 20260503215504 | 50 | 115 | 0.0 | 2.0 | 0.02 | 0.03 | 0.03 | 77 | 1014.9 |
| 20260503215005 | 51 | 108 | 0.0 | 2.0 | 0.01 | 0.03 | 0.03 | 77 | 1014.9 |
| 20260503214507 | 51 | 103 | 0.0 | 4.0 | 0.01 | 0.03 | 0.03 | 76 | 1014.8 |
| 20260503214003 | 51 | 158 | 0.0 | 4.0 | 0.00 | 0.02 | 0.02 | 75 | 1014.7 |
| 20260503213503 | 51 | 154 | 0.0 | 3.0 | 0.00 | 0.02 | 0.02 | 74 | 1014.7 |
| 20260503213013 | 51 | 120 | 0.0 | 3.0 | 0.00 | 0.02 | 0.02 | 74 | 1014.7 |
| 20260503212504 | 52 | 164 | 0.0 | 3.0 | 0.00 | 0.01 | 0.01 | 73 | 1014.8 |
| 20260503212004 | 52 | 142 | 1.0 | 3.0 | 0.00 | 0.01 | 0.01 | 73 | 1014.8 |
| 20260503211507 | 52 | 166 | 1.0 | 3.0 | 0.00 | 0.01 | 0.01 | 73 | 1014.8 |
| 20260503211003 | 52 | 214 | 0.0 | 3.0 | 0.00 | 0.01 | 0.01 | 73 | 1014.8 |
| 20260503210503 | 52 | 202 | 0.0 | 3.0 | 0.00 | 0.01 | 0.01 | 74 | 1014.9 |
| 20260503210008 | 52 | 185 | 0.0 | 3.0 | 0.00 | 0.01 | 0.01 | 74 | 1014.9 |
| 20260503205503 | 52 | 153 | 0.0 | 3.0 | 0.00 | 0.01 | 0.01 | 74 | 1014.9 |
| 20260503205003 | 52 | 146 | 0.0 | 5.0 | 0.00 | 0.01 | 0.01 | 74 | 1015.0 |
| 20260503204511 | 52 | 80 | 0.0 | 6.0 | 0.00 | 0.01 | 0.01 | 73 | 1015.0 |
| 20260503204005 | 52 | 331 | 1.0 | 6.0 | 0.00 | 0.01 | 0.01 | 72 | 1015.1 |
| 20260503203503 | 53 | 282 | 2.0 | 5.0 | 0.00 | 0.01 | 0.01 | 71 | 1015.1 |
| 20260503203011 | 53 | 151 | 1.0 | 6.0 | 0.00 | 0.01 | 0.01 | 71 | 1015.1 |
| 20260503202504 | 53 | 356 | 1.0 | 7.0 | 0.00 | 0.01 | 0.01 | 70 | 1015.0 |
| 20260503202004 | 54 | 151 | 2.0 | 7.0 | 0.00 | 0.01 | 0.01 | 69 | 1015.0 |
| 20260503201512 | 54 | 128 | 2.0 | 5.0 | 0.00 | 0.01 | 0.01 | 68 | 1015.0 |
| 20260503201004 | 54 | 175 | 1.0 | 5.0 | 0.00 | 0.01 | 0.01 | 68 | 1014.9 |
| 20260503200504 | 54 | 88 | 1.0 | 7.0 | 0.00 | 0.01 | 0.01 | 67 | 1014.9 |
| 20260503200012 | 55 | 82 | 2.0 | 7.0 | 0.00 | 0.01 | 0.01 | 67 | 1014.6 |
| 20260503195507 | 55 | 117 | 1.0 | 7.0 | 0.00 | 0.01 | 0.01 | 68 | 1014.6 |
| 20260503195005 | 55 | 128 | 1.0 | 7.0 | 0.00 | 0.01 | 0.01 | 69 | 1014.5 |
| 20260503194511 | 55 | 109 | 1.0 | 7.0 | 0.00 | 0.01 | 0.01 | 69 | 1014.3 |
| 20260503194004 | 55 | 127 | 2.0 | 7.0 | 0.00 | 0.01 | 0.01 | 69 | 1014.1 |
| 20260503193507 | 55 | 134 | 2.0 | 7.0 | 0.00 | 0.01 | 0.01 | 69 | 1014.1 |
| 20260503193028 | 55 | 141 | 2.0 | 6.0 | 0.00 | 0.01 | 0.01 | 70 | 1014.0 |
| 20260503192503 | 55 | 207 | 1.0 | 6.0 | 0.00 | 0.01 | 0.01 | 71 | 1013.9 |
| 20260503192004 | 55 | 123 | 2.0 | 6.0 | 0.00 | 0.01 | 0.01 | 70 | 1013.8 |
| 20260503191514 | 55 | 76 | 2.0 | 7.0 | 0.00 | 0.01 | 0.01 | 70 | 1013.6 |
| 20260503191006 | 55 | 149 | 2.0 | 7.0 | 0.00 | 0.01 | 0.01 | 70 | 1013.6 |
| 20260503190506 | 55 | 138 | 2.0 | 7.0 | 0.00 | 0.01 | 0.01 | 70 | 1013.5 |
| 20260503190025 | 55 | 134 | 3.0 | 7.0 | 0.00 | 0.01 | 0.01 | 70 | 1013.6 |
| 20260503185507 | 55 | 161 | 3.0 | 9.0 | 0.00 | 0.01 | 0.01 | 71 | 1013.6 |